Hlavní strana
METAR-TAF:

METAR-TAF

Letiště :

Delaware, Ohio, Spojené státy americké

zeměpisná šířka: 40-16-47N, zeměpisná délka: 83-06-53W, výška: 288 m

Aktuální stav počasí

Zpráva byla vytvořena před 45 minutami, v 12:33 UTC
Západní vítr 6 kt
Teplota 0°C
Vlhkost vzduchu 69%
Tlak 1012 hPa
Viditelnost: 16.1 km
Zataženo ve výšce 4200 ft

METAR: KDLZ 221233Z AUTO 27006KT 10SM OVC042 00/M05 A2987 RMK AO2

Čas: 08:18 (13:18 UTC)


TAF: chybějící

Stav a předpovědi počasí z více než 4 000 letišť (zprávy METAR a TAF).

Červené a žluté tečky na mapě představují dostupné meteorologické stanice.

Když kurzor umístíte na tečku, zobrazí se název stanice.

Pak kliknutím zobrazíte stav a předpověď počasí.

Chcete-li změnit mapu, kliknutím na zelené tlačítko se znaménkem +mapu přiblížíte, kliknutím na zelené tlačítko se znaménkem – mapu oddálíte a kliknutím na zelené šipky přejdete na sousední mapy.


METAR-TAF: